Terug naar catalogus

PSLV R/B

ActiefHEO
NORAD 41242·ROCKET BODY·🇮🇳 India

Gelanceerd Jan 20, 2016 vanaf Satish Dhawan Space Centre

Loading…

Volgende Passages (komende 24 uur)

TLE

VersSource: Space-Track

Epoch: Sep 14, 2026, 07:25 UTC

1 41242U 16003B   26257.30965262  .00001440  00000-0  60303-3 0  9992
2 41242  19.1423   0.3188 5970266 275.8740  23.1443  4.04539250154349

Volg PSLV R/B in realtime met AllMySat

Download on the App Store